User: anonymous   Login
Location: Carrer del Canonge
(41.4901°N, 2.2931°E)
Time: 11:36:02
(UTC+00:00)
Language:

CZ-2D R/B - Orbit

View from above orbital plane
View from above orbital plane
View from above satellite
View from above satellite

Ground track
Ground track

The orbit data is extracted from the following two-line orbital elements,

1 28738U 05024B   21135.95786230  .00000420  00000-0  27728-4 0  9997
2 28738  97.3624 153.1414 0013400 111.5091 248.7570 15.12385217871651
Epoch (UTC): 15 May 2021 22:59:19
Eccentricity: 0.0013400
inclination: 97.3624°
perigee height: 519 km
apogee height: 538 km
right ascension of ascending node: 153.1414°
argument of perigee: 111.5091°
revolutions per day: 15.12385217
mean anomaly at epoch: 248.7570°
orbit number at epoch: 87165

The dashed part of the orbit path shows where the satellite is in the earth's shadow,  

DLR